Location: Banff
(51.1667°N, 115.5667°W)
Time: 13:16:17
(UTC+00:00)

Tiros 1 - Pass Details

Date: 03 August 2021
Orbit: 630 x 663 km, 48.4° (Epoch: 27 September)

Event Time Altitude Azimuth Distance (km) Brightness Sun altitude
Rises 06:01:11 0° 279° (W) 2,972 11.1 -17.5°
Reaches altitude 10° 06:03:41 10° 270° (W) 2,053 10.1 -17.7°
Maximum altitude 06:07:57 35° 206° (SSW) 1,050 7.9 -18.0°
Enters shadow 06:08:42 33° 185° (S) 1,092 7.8 -18.0°
